Time[GMT],temperature[C](20m),salinity[psu](20m),sigma_t[kg/m^3](20m),dissolved_oxygen[ml/l](20m),oxygen_saturation[ml/l](20m),percent_oxygen_saturation[%](20m),conductivity[msiemens/cm](20m)
2011-03-09 20:00,2.45,31.539,25.167,7.011,7.7262,90.75,28.376
2011-03-09 22:00,2.45,31.554,25.178,7.034,7.7241,91.07,28.393
2011-03-09 23:00,2.40,31.514,25.151,7.171,7.7376,92.68,28.314
2011-03-10 00:00,2.35,31.491,25.136,7.247,7.7480,93.54,28.257
2011-03-10 01:00,2.25,31.411,25.079,7.165,7.7718,92.20,28.113
2011-03-10 02:00,2.23,31.393,25.066,6.909,7.7758,88.85,28.086
2011-03-10 03:00,2.20,31.363,25.045,7.124,7.7850,91.51,28.031
2011-03-10 04:00,2.22,31.373,25.051,7.168,7.7788,92.15,28.062
2011-03-10 05:00,2.32,31.447,25.104,7.133,7.7564,91.96,28.197
2011-03-10 06:00,2.34,31.474,25.123,7.069,7.7502,91.21,28.239
2011-03-10 07:00,2.24,31.400,25.071,7.096,7.7739,91.28,28.097
2011-03-10 08:00,2.08,31.151,24.884,7.267,7.8189,92.95,27.769
2011-03-10 09:00,2.05,30.895,24.681,7.325,7.8397,93.43,27.533
2011-03-10 10:00,2.13,31.184,24.906,7.372,7.8084,94.41,27.830
2011-03-10 11:00,2.11,31.131,24.865,7.343,7.8152,93.95,27.771
2011-03-10 12:00,2.05,30.876,24.665,7.366,7.8397,93.96,27.521
2011-03-10 13:00,2.04,30.821,24.622,7.344,7.8438,93.63,27.472
2011-03-10 14:00,2.05,30.777,24.587,7.324,7.8444,93.36,27.443
2011-03-10 15:00,2.09,31.012,24.771,7.305,7.8241,93.37,27.664
2011-03-10 16:00,2.08,30.931,24.708,7.249,7.8320,92.56,27.584
2011-03-10 17:00,2.08,30.936,24.711,7.373,7.8306,94.16,27.593
2011-03-10 18:00,2.08,30.935,24.711,7.306,7.8309,93.30,27.591
2011-03-10 19:00,2.08,30.922,24.700,7.309,7.8318,93.32,27.580
2011-03-10 20:00,2.11,30.632,24.466,7.342,7.8399,93.65,27.373
2011-03-10 21:00,2.20,30.442,24.308,7.444,7.8328,95.04,27.285
2011-03-10 22:00,2.10,30.562,24.411,7.450,7.8471,94.94,27.302
2011-03-10 23:00,2.05,30.600,24.445,7.408,7.8545,94.32,27.297
2011-03-11 00:00,2.07,30.457,24.329,7.391,7.8580,94.06,27.196
2011-03-11 01:00,2.08,30.429,24.306,7.311,7.8570,93.06,27.184
2011-03-11 02:00,2.07,30.555,24.408,7.378,7.8528,93.95,27.276
2011-03-11 03:00,2.09,30.696,24.518,7.379,7.8404,94.11,27.409
2011-03-11 04:00,2.12,30.664,24.491,7.394,7.8363,94.35,27.406
2011-03-11 05:00,2.14,30.747,24.556,7.350,7.8276,93.90,27.490
2011-03-11 06:00,2.17,30.794,24.592,7.336,7.8199,93.81,27.549
2011-03-11 07:00,2.17,30.749,24.555,7.366,7.8224,94.17,27.512
2011-03-11 08:00,2.23,30.554,24.396,7.402,7.8206,94.64,27.401
2011-03-11 09:00,2.36,30.402,24.265,7.359,7.8017,94.33,27.382
2011-03-11 10:00,2.49,30.254,24.137,7.338,7.7838,94.28,27.361
2011-03-11 11:00,2.49,30.250,24.134,7.340,7.7851,94.28,27.354
2011-03-11 12:00,2.27,30.337,24.219,7.326,7.8232,93.65,27.258
2011-03-11 13:00,2.24,30.346,24.228,7.301,7.8299,93.25,27.237
2011-03-11 14:00,2.28,30.268,24.163,7.372,7.8257,94.21,27.206
2011-03-11 15:00,2.20,30.473,24.333,7.349,7.8301,93.86,27.315
2011-03-11 16:00,2.32,30.458,24.312,7.370,7.8078,94.40,27.392
2011-03-11 17:00,2.35,30.431,24.289,7.323,7.8034,93.85,27.393
2011-03-11 18:00,2.26,30.625,24.450,7.350,7.8100,94.11,27.485
2011-03-11 19:00,2.30,30.530,24.371,7.262,7.8071,93.02,27.439
2011-03-11 20:00,2.34,30.308,24.191,7.300,7.8122,93.45,27.283
2011-03-11 21:00,2.53,30.012,23.941,7.366,7.7898,94.56,27.188
2011-03-11 22:00,2.67,29.870,23.817,7.384,7.7688,95.04,27.181
2011-03-11 23:00,2.41,30.060,23.988,7.408,7.8105,94.85,27.137
2011-03-12 00:00,2.29,30.128,24.051,7.393,7.8302,94.42,27.103
2011-03-12 01:00,2.36,30.056,23.989,7.418,7.8215,94.84,27.093
2011-03-12 02:00,2.33,30.041,23.978,7.348,7.8270,93.89,27.062
2011-03-12 03:00,2.33,30.003,23.948,7.349,7.8293,93.87,27.030
2011-03-12 04:00,2.35,30.428,24.286,7.297,7.8037,93.51,27.390
2011-03-12 05:00,2.50,30.948,24.691,7.258,7.7459,93.70,27.937
2011-03-12 06:00,2.53,31.098,24.808,7.141,7.7317,92.36,28.086
2011-03-12 07:00,2.55,31.213,24.899,7.103,7.7224,91.98,28.194
2011-03-12 08:00,2.54,31.122,24.827,7.074,7.7302,91.51,28.106
2011-03-12 09:00,2.50,30.783,24.560,7.109,7.7552,91.66,27.799
2011-03-12 10:00,2.49,30.507,24.339,7.230,7.7712,93.04,27.566
2011-03-12 11:00,2.42,30.330,24.203,7.193,7.7940,92.29,27.368
2011-03-12 12:00,2.41,30.202,24.101,7.357,7.8024,94.29,27.256
2011-03-12 13:00,2.43,30.127,24.039,7.351,7.8025,94.21,27.209
2011-03-12 14:00,2.47,29.994,23.931,7.428,7.8017,95.21,27.130
2011-03-12 15:00,2.45,30.456,24.301,7.312,7.7813,93.97,27.495
2011-03-12 16:00,2.59,31.222,24.903,7.202,7.7155,93.35,28.227
2011-03-12 17:00,2.59,31.250,24.925,7.201,7.7127,93.36,28.256
2011-03-12 18:00,2.73,31.354,24.997,7.118,7.6797,92.69,28.455
2011-03-12 19:00,2.77,31.408,25.037,7.065,7.6703,92.10,28.526
2011-03-12 20:00,2.78,31.412,25.040,7.081,7.6678,92.34,28.539
2011-03-12 21:00,2.73,31.375,25.014,7.085,7.6795,92.25,28.468
2011-03-12 22:00,2.71,31.356,25.001,7.044,7.6840,91.67,28.438
2011-03-12 23:00,2.71,31.281,24.941,7.045,7.6882,91.64,28.375
2011-03-13 00:00,2.62,31.018,24.738,7.140,7.7199,92.48,28.085
2011-03-13 01:00,2.71,30.587,24.386,7.233,7.7231,93.66,27.807
2011-03-13 02:00,2.63,31.159,24.850,7.109,7.7097,92.21,28.212
2011-03-13 03:00,3.04,31.547,25.126,7.035,7.6110,92.43,28.860
2011-03-13 04:00,2.92,31.461,25.067,7.045,7.6373,92.24,28.697
2011-03-13 05:00,2.95,31.488,25.086,7.029,7.6305,92.12,28.742
2011-03-13 06:00,3.22,31.618,25.167,6.932,7.5719,91.55,29.070
2011-03-13 07:00,3.24,31.596,25.149,6.961,7.5704,91.95,29.063
2011-03-13 08:00,3.42,31.689,25.207,6.881,7.5315,91.37,29.289
2011-03-13 09:00,3.44,31.689,25.204,6.827,7.5268,90.70,29.309
2011-03-13 10:00,3.48,31.705,25.214,6.862,7.5193,91.26,29.351
2011-03-13 11:00,3.52,31.739,25.237,6.839,7.5096,91.07,29.415
2011-03-13 12:00,3.41,31.669,25.192,6.898,7.5338,91.55,29.267
2011-03-13 13:00,3.31,31.611,25.155,6.955,7.5564,92.04,29.133
2011-03-13 14:00,3.20,31.519,25.091,6.958,7.5814,91.78,28.969
2011-03-13 15:00,2.98,31.216,24.867,6.969,7.6385,91.23,28.541
2011-03-13 16:00,3.16,31.480,25.063,6.890,7.5918,90.75,28.900
2011-03-13 17:00,3.42,31.669,25.191,6.857,7.5331,91.02,29.269
2011-03-13 18:00,3.46,31.699,25.211,6.837,7.5230,90.89,29.332
2011-03-13 19:00,3.56,31.753,25.245,6.788,7.5022,90.48,29.456
2011-03-13 20:00,3.59,31.770,25.257,6.793,7.4958,90.63,29.495
2011-03-13 21:00,3.57,31.756,25.247,6.824,7.4995,91.00,29.470
2011-03-13 22:00,3.53,31.711,25.215,6.674,7.5093,88.88,29.399
2011-03-13 23:00,3.55,31.734,25.230,6.711,7.5043,89.43,29.435
2011-03-14 00:00,3.54,31.719,25.221,6.746,7.5077,89.85,29.412
2011-03-14 01:00,3.50,31.685,25.196,6.809,7.5167,90.58,29.350
2011-03-14 02:00,3.45,31.621,25.150,6.850,7.5298,90.98,29.254
2011-03-14 03:00,3.31,31.533,25.092,6.937,7.5594,91.77,29.072
2011-03-14 04:00,3.30,31.540,25.098,6.822,7.5610,90.22,29.069
2011-03-14 05:00,3.46,31.658,25.179,6.764,7.5259,89.88,29.294
2011-03-14 06:00,3.57,31.748,25.241,6.673,7.5009,88.96,29.459
2011-03-14 07:00,3.61,31.778,25.260,6.574,7.4913,87.76,29.519
2011-03-14 08:00,3.61,31.774,25.257,6.512,7.4908,86.94,29.519
2011-03-14 09:00,3.61,31.763,25.248,6.875,7.4911,91.78,29.511
2011-03-14 10:00,3.64,31.786,25.264,6.844,7.4852,91.43,29.552
2011-03-14 11:00,3.63,31.768,25.251,6.769,7.4880,90.40,29.528
2011-03-14 12:00,3.64,31.779,25.258,6.880,7.4859,91.90,29.544
2011-03-14 13:00,3.63,31.779,25.259,6.920,7.4867,92.43,29.541
2011-03-14 14:00,3.61,31.759,25.245,6.815,7.4912,90.97,29.508
2011-03-14 15:00,3.54,31.671,25.182,6.761,7.5091,90.04,29.375
2011-03-14 16:00,3.58,31.726,25.222,6.719,7.4986,89.61,29.456
2011-03-14 17:00,3.52,31.639,25.158,6.563,7.5151,87.33,29.329
2011-03-14 18:00,3.62,31.760,25.245,6.653,7.4906,88.82,29.511
2011-03-14 19:00,3.66,31.796,25.271,6.619,7.4818,88.46,29.573
2011-03-14 20:00,3.71,31.852,25.310,6.640,7.4683,88.91,29.667
2011-03-14 21:00,3.67,31.798,25.271,6.408,7.4781,85.69,29.590
2011-03-14 22:00,3.67,31.792,25.266,6.728,7.4791,89.96,29.582
2011-03-14 23:00,3.67,31.795,25.269,6.755,7.4798,90.31,29.581
2011-03-15 00:00,3.66,31.783,25.261,6.817,7.4822,91.11,29.563
2011-03-15 01:00,3.61,31.704,25.202,6.697,7.4942,89.36,29.461
2011-03-15 02:00,3.58,31.659,25.169,6.548,7.5026,87.28,29.397
2011-03-15 03:00,3.57,31.664,25.174,6.738,7.5048,89.78,29.390
2011-03-15 04:00,3.48,31.460,25.019,6.887,7.5321,91.44,29.144
2011-03-15 05:00,3.46,31.394,24.968,6.831,7.5390,90.61,29.073
2011-03-15 06:00,3.45,31.341,24.927,6.906,7.5433,91.55,29.022
2011-03-15 07:00,3.52,31.462,25.017,6.720,7.5237,89.32,29.182
2011-03-15 08:00,3.55,31.562,25.094,6.719,7.5130,89.44,29.290
2011-03-15 09:00,3.60,31.640,25.151,6.730,7.4990,89.75,29.400
2011-03-15 10:00,3.62,31.654,25.161,6.491,7.4961,86.60,29.422
2011-03-15 11:00,3.62,31.672,25.175,6.377,7.4941,85.09,29.441
2011-03-15 12:00,3.62,31.671,25.174,6.363,7.4939,84.91,29.442
2011-03-15 13:00,3.62,31.666,25.171,6.451,7.4951,86.06,29.434
2011-03-15 14:00,3.59,31.594,25.116,6.670,7.5043,88.88,29.348
2011-03-15 15:00,3.52,31.450,25.007,6.794,7.5242,90.29,29.172
2011-03-15 16:00,3.52,31.458,25.014,6.861,7.5239,91.19,29.178
2011-03-15 17:00,3.48,31.316,24.904,7.007,7.5379,92.96,29.029
2011-03-15 18:00,3.44,31.050,24.696,7.074,7.5586,93.59,28.775
2011-03-15 19:00,3.50,31.360,24.937,7.005,7.5330,93.00,29.078
2011-03-15 20:00,3.56,31.484,25.031,6.925,7.5158,92.14,29.229
2011-03-15 21:00,3.57,31.528,25.065,6.878,7.5119,91.56,29.274
2011-03-15 22:00,3.61,31.610,25.127,6.857,7.4989,91.44,29.382
2011-03-15 23:00,3.59,31.558,25.088,6.872,7.5066,91.54,29.316
2011-03-16 00:00,3.60,31.597,25.118,6.826,7.5027,90.98,29.357
2011-03-16 01:00,3.56,31.509,25.051,6.881,7.5138,91.58,29.254
2011-03-16 02:00,3.53,31.396,24.964,6.876,7.5243,91.39,29.138
2011-03-16 03:00,3.51,31.118,24.744,6.990,7.5427,92.68,28.885
2011-03-16 04:00,3.52,30.387,24.161,7.165,7.5779,94.56,28.275
2011-03-16 05:00,3.55,29.961,23.821,7.266,7.5944,95.68,27.937
2011-03-16 06:00,3.51,30.309,24.100,7.228,7.5838,95.31,28.202
2011-03-16 07:00,3.52,30.734,24.437,7.159,7.5601,94.70,28.570
2011-03-16 08:00,3.53,30.999,24.647,7.071,7.5443,93.73,28.803
2011-03-16 09:00,3.58,31.478,25.025,6.916,7.5126,92.06,29.240
2011-03-16 10:00,3.60,31.470,25.016,6.896,7.5076,91.86,29.257
2011-03-16 11:00,3.67,31.604,25.117,6.810,7.4886,90.94,29.423
2011-03-16 12:00,3.69,31.673,25.170,6.784,7.4816,90.67,29.497
2011-03-16 13:00,3.64,31.604,25.119,6.775,7.4935,90.41,29.402
2011-03-16 14:00,3.63,31.584,25.104,6.813,7.4970,90.88,29.374
2011-03-16 15:00,3.63,31.481,25.023,6.857,7.5025,91.40,29.286
2011-03-16 16:00,3.54,30.706,24.414,6.942,7.5581,91.84,28.560
2011-03-16 17:00,3.52,30.223,24.031,7.060,7.5864,93.07,28.136
2011-03-16 18:00,3.64,31.341,24.910,6.793,7.5080,90.48,29.174
2011-03-16 19:00,3.70,31.624,25.130,6.789,7.4826,90.73,29.462
2011-03-16 20:00,3.69,31.599,25.111,6.747,7.4858,90.13,29.433
2011-03-16 21:00,3.74,31.695,25.183,6.772,7.4715,90.64,29.555
2011-03-16 22:00,3.76,31.723,25.203,6.610,7.4662,88.53,29.596
2011-03-16 23:00,3.77,31.776,25.244,6.646,7.4607,89.08,29.654
2011-03-17 00:00,3.79,31.785,25.250,6.582,7.4582,88.26,29.670
2011-03-17 01:00,3.77,31.741,25.217,6.591,7.4630,88.31,29.622
2011-03-17 02:00,3.79,31.788,25.252,6.640,7.4576,89.04,29.675
2011-03-17 03:00,3.77,31.739,25.215,6.683,7.4634,89.55,29.619
2011-03-17 04:00,3.75,31.671,25.163,6.780,7.4713,90.75,29.542
2011-03-17 05:00,3.74,31.661,25.155,6.811,7.4728,91.15,29.528
2011-03-17 06:00,3.73,31.604,25.111,6.804,7.4778,90.98,29.471
2011-03-17 07:00,3.66,31.225,24.815,6.763,7.5089,90.07,29.097
2011-03-17 08:00,3.72,31.584,25.096,6.668,7.4797,89.14,29.450
2011-03-17 09:00,3.75,31.673,25.164,6.662,7.4703,89.18,29.547
2011-03-17 10:00,3.74,31.649,25.146,6.639,7.4728,88.84,29.521
2011-03-17 11:00,3.73,31.604,25.111,6.608,7.4768,88.38,29.475
2011-03-17 12:00,3.76,31.713,25.195,6.609,7.4656,88.53,29.593
2011-03-17 13:00,3.72,31.500,25.029,6.457,7.4843,86.28,29.377
2011-03-17 14:00,3.73,31.520,25.044,6.652,7.4816,88.91,29.401
2011-03-17 15:00,3.71,31.461,24.999,6.696,7.4875,89.43,29.339
2011-03-17 16:00,3.68,31.207,24.800,6.824,7.5059,90.91,29.099
2011-03-17 17:00,3.68,31.224,24.813,6.853,7.5049,91.31,29.114
2011-03-17 18:00,3.66,30.963,24.608,6.859,7.5229,91.18,28.872
2011-03-17 19:00,3.64,30.801,24.480,6.893,7.5341,91.49,28.722
2011-03-17 20:00,3.63,30.513,24.252,6.970,7.5507,92.30,28.469
2011-03-17 21:00,3.69,31.221,24.810,6.831,7.5038,91.03,29.117
2011-03-17 22:00,3.73,31.487,25.018,6.746,7.4835,90.15,29.372
2011-03-17 23:00,3.75,31.548,25.064,6.772,7.4764,90.58,29.442
2011-03-18 00:00,3.74,31.485,25.015,6.629,7.4812,88.61,29.381
2011-03-18 01:00,3.77,31.546,25.062,6.747,7.4734,90.27,29.454
2011-03-18 02:00,3.75,31.534,25.053,6.745,7.4766,90.22,29.432
2011-03-18 03:00,3.75,31.493,25.021,6.784,7.4800,90.69,29.391
2011-03-18 04:00,3.74,31.440,24.980,6.792,7.4839,90.75,29.341
2011-03-18 05:00,3.71,31.302,24.873,6.851,7.4964,91.39,29.200
2011-03-18 06:00,3.69,30.924,24.574,6.864,7.5192,91.29,28.863
2011-03-18 07:00,3.77,30.429,24.173,6.999,7.5290,92.96,28.507
2011-03-18 08:00,3.77,30.498,24.227,7.034,7.5245,93.49,28.571
2011-03-18 09:00,3.72,31.268,24.844,6.898,7.4955,92.03,29.182
2011-03-18 10:00,3.75,31.441,24.980,6.823,7.4824,91.19,29.348
2011-03-18 11:00,3.78,31.514,25.035,6.821,7.4725,91.28,29.438
2011-03-18 12:00,3.78,31.464,24.995,6.832,7.4751,91.40,29.395
2011-03-18 13:00,3.80,31.526,25.043,6.765,7.4692,90.57,29.460
2011-03-18 14:00,3.79,31.524,25.042,6.733,7.4710,90.13,29.450
2011-03-18 15:00,3.78,31.481,25.009,6.817,7.4744,91.21,29.409
2011-03-18 16:00,3.78,31.250,24.825,6.884,7.4856,91.96,29.215
2011-03-18 17:00,3.76,30.892,24.542,6.918,7.5073,92.16,28.894
2011-03-18 18:00,3.88,30.361,24.109,7.071,7.5114,94.14,28.539
2011-03-18 19:00,4.02,29.758,23.617,7.099,7.5152,94.47,28.134
2011-03-18 20:00,4.03,29.736,23.599,7.119,7.5150,94.73,28.120
2011-03-18 21:00,3.81,30.939,24.575,6.942,7.4962,92.60,28.972
2011-03-18 22:00,3.80,31.427,24.964,6.863,7.4730,91.84,29.381
2011-03-18 23:00,3.81,31.278,24.845,6.831,7.4795,91.32,29.259
2011-03-19 00:00,3.83,31.394,24.935,6.835,7.4697,91.50,29.375
2011-03-19 01:00,3.93,31.776,25.230,6.721,7.4322,90.43,29.781
2011-03-19 02:00,3.94,31.796,25.245,6.581,7.4297,88.57,29.805
2011-03-19 03:00,3.92,31.742,25.203,6.531,7.4354,87.83,29.746
2011-03-19 04:00,3.93,31.758,25.215,6.575,7.4336,88.45,29.763
2011-03-19 05:00,3.92,31.740,25.201,6.677,7.4355,89.80,29.744
2011-03-19 06:00,3.91,31.648,25.129,6.758,7.4418,90.81,29.658
2011-03-19 07:00,3.90,31.374,24.913,6.706,7.4582,89.92,29.413
2011-03-19 08:00,3.89,31.345,24.890,6.668,7.4610,89.37,29.382
2011-03-19 09:00,3.91,31.150,24.733,6.645,7.4668,89.00,29.233
2011-03-19 10:00,3.91,31.566,25.064,6.723,7.4459,90.29,29.588
2011-03-19 11:00,3.93,31.735,25.197,6.698,7.4345,90.10,29.745
2011-03-19 12:00,3.93,31.704,25.171,6.638,7.4353,89.28,29.722
2011-03-19 13:00,3.96,31.755,25.210,6.653,7.4283,89.57,29.785
2011-03-19 14:00,3.94,31.639,25.120,6.752,7.4371,90.79,29.673
2011-03-19 15:00,3.94,31.607,25.093,6.797,7.4382,91.38,29.648
2011-03-19 16:00,3.99,31.224,24.785,6.872,7.4487,92.26,29.360
2011-03-19 17:00,3.96,31.442,24.961,6.816,7.4432,91.57,29.522
2011-03-19 18:00,3.95,31.526,25.028,6.823,7.4405,91.70,29.587
2011-03-19 19:00,3.97,31.376,24.907,6.850,7.4438,92.02,29.477
2011-03-19 20:00,4.02,31.254,24.806,6.762,7.4415,90.87,29.410
2011-03-19 21:00,4.03,31.154,24.725,6.829,7.4450,91.73,29.331
2011-03-19 22:00,4.00,31.246,24.801,6.840,7.4446,91.88,29.391
2011-03-19 23:00,3.98,31.369,24.900,6.637,7.4422,89.18,29.480
2011-03-20 00:00,3.96,31.501,25.007,6.724,7.4393,90.38,29.576
2011-03-20 01:00,3.98,31.669,25.139,6.735,7.4278,90.67,29.733
2011-03-20 02:00,4.04,31.772,25.216,6.616,7.4128,89.26,29.865
2011-03-20 03:00,4.01,31.694,25.156,6.551,7.4209,88.27,29.780
2011-03-20 04:00,4.00,31.564,25.054,6.711,7.4287,90.33,29.663
2011-03-20 05:00,4.01,31.414,24.934,6.750,7.4351,90.79,29.540
2011-03-20 06:00,4.03,31.343,24.876,6.762,7.4354,90.95,29.494
2011-03-20 07:00,4.03,31.280,24.825,6.830,7.4372,91.84,29.446
2011-03-20 08:00,4.02,31.316,24.855,6.700,7.4381,90.08,29.465
2011-03-20 09:00,4.07,31.093,24.673,6.610,7.4393,88.85,29.318
2011-03-20 10:00,4.13,30.894,24.509,6.681,7.4378,89.82,29.197
2011-03-20 11:00,4.05,31.202,24.762,6.478,7.4385,87.08,29.391
2011-03-20 12:00,4.04,31.262,24.810,6.492,7.4377,87.29,29.432
2011-03-20 13:00,4.04,31.435,24.948,6.714,7.4283,90.38,29.584
2011-03-20 14:00,4.07,31.635,25.103,6.672,7.4126,90.01,29.780
2011-03-20 15:00,4.08,31.628,25.097,6.705,7.4116,90.47,29.781
2011-03-20 16:00,4.09,31.701,25.154,6.515,7.4069,87.96,29.847
2011-03-20 17:00,4.08,31.635,25.103,6.356,7.4106,85.77,29.789
2011-03-20 18:00,4.09,31.446,24.952,6.452,7.4196,86.96,29.629
2011-03-20 19:00,4.08,31.381,24.901,6.790,7.4236,91.46,29.570
2011-03-20 20:00,4.09,31.275,24.815,6.827,7.4265,91.92,29.490
2011-03-20 21:00,4.10,31.162,24.725,6.851,7.4310,92.19,29.398
2011-03-20 22:00,4.12,31.013,24.605,6.913,7.4348,92.98,29.287
2011-03-20 23:00,4.12,31.018,24.609,6.858,7.4340,92.25,29.293
2011-03-21 00:00,4.16,30.910,24.520,6.791,7.4326,91.37,29.230
2011-03-21 01:00,4.13,31.045,24.629,6.721,7.4308,90.44,29.325
2011-03-21 02:00,4.10,31.214,24.766,6.801,7.4287,91.55,29.441
2011-03-21 03:00,4.10,31.250,24.795,6.773,7.4260,91.21,29.476
2011-03-21 04:00,4.11,31.169,24.730,6.839,7.4297,92.05,29.408
2011-03-21 05:00,4.23,30.726,24.366,6.922,7.4279,93.20,29.133
2011-03-21 06:00,4.29,30.595,24.256,6.921,7.4235,93.24,29.067
2011-03-21 07:00,4.39,30.394,24.088,7.029,7.4165,94.78,28.968
2011-03-21 08:00,4.40,30.168,23.908,7.067,7.4255,95.17,28.782
2011-03-21 09:00,4.40,30.093,23.848,7.093,7.4293,95.47,28.716
2011-03-21 10:00,4.37,30.118,23.870,7.088,7.4331,95.35,28.716
2011-03-21 11:00,4.39,30.103,23.856,7.072,7.4293,95.18,28.722
2011-03-21 12:00,4.35,30.254,23.980,7.028,7.4296,94.59,28.820
2011-03-21 13:00,4.33,30.321,24.035,7.041,7.4296,94.77,28.864
2011-03-21 14:00,4.15,31.146,24.708,6.868,7.4225,92.53,29.426
2011-03-21 15:00,4.14,31.238,24.782,6.812,7.4198,91.81,29.497
2011-03-21 16:00,4.13,31.393,24.905,6.765,7.4142,91.24,29.619
2011-03-21 17:00,4.13,31.458,24.957,6.725,7.4118,90.74,29.671
2011-03-21 18:00,4.16,31.154,24.713,6.778,7.4206,91.34,29.440
2011-03-21 19:00,4.18,30.934,24.536,6.806,7.4267,91.64,29.272
2011-03-21 20:00,4.24,30.532,24.211,6.934,7.4356,93.25,28.974
2011-03-21 21:00,4.23,30.128,23.891,6.986,7.4572,93.68,28.619
2011-03-21 22:00,4.22,30.166,23.922,7.023,7.4576,94.17,28.642
2011-03-21 23:00,4.23,30.073,23.848,6.996,7.4616,93.77,28.565
2011-03-22 00:00,4.16,31.107,24.675,6.810,7.4228,91.74,29.399
2011-03-22 01:00,4.16,31.044,24.626,6.806,7.4256,91.66,29.347
2011-03-22 02:00,4.14,30.501,24.196,6.771,7.4558,90.82,28.867
2011-03-22 03:00,4.13,31.237,24.782,6.606,7.4211,89.01,29.490
2011-03-22 04:00,4.12,31.283,24.819,6.585,7.4205,88.75,29.522
2011-03-22 05:00,4.12,31.355,24.877,6.698,7.4175,90.30,29.581
2011-03-22 06:00,4.12,31.160,24.721,6.735,7.4266,90.68,29.416
2011-03-22 07:00,4.13,31.086,24.662,6.780,7.4288,91.27,29.360
2011-03-22 08:00,4.12,30.912,24.524,6.772,7.4393,91.02,29.202
2011-03-22 09:00,4.13,30.847,24.472,6.718,7.4413,90.28,29.152
2011-03-22 10:00,4.13,30.772,24.412,6.798,7.4440,91.33,29.092
2011-03-22 11:00,4.14,30.663,24.325,6.822,7.4489,91.58,29.001
2011-03-22 12:00,4.13,30.792,24.428,6.781,7.4436,91.10,29.107
2011-03-22 13:00,4.12,31.083,24.661,6.762,7.4318,90.99,29.345
2011-03-22 14:00,4.11,31.140,24.706,6.741,7.4300,90.73,29.389
2011-03-22 15:00,4.10,31.185,24.743,6.736,7.4297,90.66,29.419
2011-03-22 16:00,4.09,31.360,24.883,6.666,7.4232,89.80,29.558
2011-03-22 17:00,4.09,31.329,24.859,6.650,7.4251,89.56,29.530
2011-03-22 18:00,4.07,31.128,24.700,6.645,7.4374,89.34,29.348
2011-03-22 19:00,4.08,30.768,24.414,6.635,7.4538,89.02,29.047
2011-03-22 20:00,4.07,30.971,24.576,6.685,7.4454,89.78,29.213
2011-03-22 21:00,4.08,30.948,24.557,6.777,7.4457,91.02,29.197
2011-03-22 22:00,4.08,30.961,24.567,6.759,7.4440,90.79,29.213
2011-03-22 23:00,4.09,30.853,24.480,6.668,7.4477,89.53,29.127
2011-03-23 00:00,4.09,30.682,24.344,6.768,7.4557,90.77,28.983
2011-03-23 01:00,4.09,30.757,24.404,6.751,7.4521,90.60,29.047
2011-03-23 02:00,4.08,30.925,24.538,6.642,7.4455,89.21,29.183
2011-03-23 03:00,4.08,30.882,24.504,6.512,7.4492,87.41,29.139
2011-03-23 04:00,4.08,30.829,24.463,6.512,7.4518,87.39,29.095
2011-03-23 05:00,4.08,30.739,24.391,6.752,7.4551,90.56,29.022
2011-03-23 06:00,4.10,30.543,24.233,6.827,7.4612,91.50,28.871
2011-03-23 07:00,4.10,30.365,24.092,6.852,7.4706,91.72,28.715
2011-03-23 08:00,4.11,30.369,24.094,6.850,7.4678,91.73,28.730
2011-03-23 09:00,4.11,30.326,24.060,6.857,7.4710,91.78,28.688
2011-03-23 10:00,4.11,30.268,24.013,6.814,7.4731,91.17,28.641
2011-03-23 11:00,4.08,30.117,23.897,6.715,7.4869,89.69,28.485
2011-03-23 12:00,4.05,30.063,23.856,6.810,7.4944,90.86,28.419
2011-03-23 13:00,4.08,30.148,23.921,6.858,7.4841,91.64,28.517
2011-03-23 14:00,4.09,30.559,24.246,6.814,7.4618,91.32,28.878
2011-03-23 15:00,4.09,31.204,24.760,6.712,7.4313,90.32,29.424
2011-03-23 16:00,4.10,31.581,25.057,6.631,7.4095,89.49,29.760
2011-03-23 17:00,4.11,31.649,25.110,6.543,7.4047,88.37,29.824
2011-03-23 18:00,4.11,31.633,25.098,6.125,7.4057,82.71,29.810
2011-03-23 19:00,4.11,31.555,25.036,6.568,7.4104,88.64,29.740
2011-03-23 20:00,4.09,31.205,24.760,6.531,7.4303,87.90,29.428
2011-03-23 21:00,4.10,31.228,24.778,6.443,7.4280,86.74,29.454
2011-03-23 22:00,4.09,30.833,24.464,6.672,7.4484,89.57,29.111
2011-03-23 23:00,4.09,30.963,24.568,6.732,7.4426,90.45,29.221
2011-03-24 00:00,4.09,30.651,24.320,6.673,7.4589,89.46,28.950
2011-03-24 01:00,4.08,30.414,24.133,6.701,7.4720,89.68,28.740
2011-03-24 02:00,4.10,31.173,24.734,6.526,7.4310,87.82,29.405
2011-03-24 03:00,4.09,30.930,24.542,6.286,7.4436,84.45,29.195
2011-03-24 04:00,4.10,31.247,24.792,6.557,7.4268,88.29,29.471
2011-03-24 05:00,4.10,31.250,24.795,6.681,7.4265,89.96,29.474
2011-03-24 06:00,4.10,31.247,24.792,6.613,7.4266,89.05,29.472
2011-03-24 07:00,4.10,31.203,24.757,6.737,7.4290,90.69,29.433
2011-03-24 08:00,4.10,30.977,24.578,6.755,7.4405,90.78,29.238
2011-03-24 09:00,4.10,30.804,24.441,6.763,7.4494,90.79,29.089
2011-03-24 10:00,4.10,30.644,24.314,6.752,7.4574,90.54,28.951
2011-03-24 11:00,4.10,30.517,24.213,6.793,7.4637,91.02,28.843
2011-03-24 12:00,4.09,30.377,24.102,6.853,7.4708,91.74,28.722
2011-03-24 13:00,4.09,30.335,24.069,6.824,7.4728,91.32,28.687
2011-03-24 14:00,4.10,30.904,24.520,6.797,7.4442,91.30,29.175
2011-03-24 15:00,4.10,31.128,24.698,6.714,7.4331,90.32,29.367
2011-03-24 16:00,4.10,31.222,24.772,6.780,7.4281,91.28,29.449
2011-03-24 17:00,4.09,31.153,24.719,6.706,7.4333,90.21,29.382
2011-03-24 18:00,4.09,31.146,24.713,6.656,7.4338,89.54,29.376
2011-03-24 19:00,4.09,31.142,24.710,6.714,7.4339,90.32,29.373
2011-03-24 20:00,4.07,30.659,24.328,6.809,7.4620,91.25,28.941
2011-03-24 21:00,4.10,30.224,23.980,6.848,7.4771,91.58,28.597
2011-03-24 22:00,4.11,30.566,24.250,6.573,7.4583,88.12,28.897
2011-03-24 23:00,4.09,30.835,24.466,6.668,7.4488,89.52,29.112
2011-03-25 00:00,4.10,30.761,24.407,6.708,7.4512,90.03,29.054
2011-03-25 01:00,4.12,30.600,24.277,6.706,7.4556,89.94,28.931
2011-03-25 02:00,4.12,30.416,24.130,6.684,7.4635,89.56,28.778
2011-03-25 03:00,4.14,30.283,24.023,6.764,7.4670,90.58,28.678
2011-03-25 04:00,4.12,30.523,24.216,6.511,7.4594,87.29,28.865
2011-03-25 05:00,4.09,30.857,24.483,6.628,7.4473,89.01,29.132
2011-03-25 06:00,4.10,30.730,24.381,6.656,7.4515,89.32,29.032
2011-03-25 07:00,4.09,30.946,24.554,6.684,7.4430,89.80,29.208
2011-03-25 08:00,4.10,30.748,24.396,6.728,7.4510,90.29,29.046
2011-03-25 09:00,4.12,30.484,24.184,6.593,7.4602,88.38,28.836
2011-03-25 10:00,4.14,30.266,24.010,6.672,7.4676,89.34,28.664
2011-03-25 11:00,4.15,30.222,23.973,6.749,7.4677,90.38,28.635
2011-03-25 12:00,4.15,29.961,23.767,6.753,7.4814,90.26,28.408
2011-03-25 13:00,4.12,29.859,23.689,6.753,7.4919,90.14,28.297